Year,Month,Day,Hour,Minute,Value (Times are PST for temperature in C)
2016,06,04,00,00,17.10
2016,06,04,00,01,17.10
2016,06,04,00,02,17.00
2016,06,04,00,03,17.00
2016,06,04,00,04,17.00
2016,06,04,00,05,17.00
2016,06,04,00,06,16.90
2016,06,04,00,07,16.90
2016,06,04,00,08,16.90
2016,06,04,00,09,16.80
2016,06,04,00,10,16.80
2016,06,04,00,11,16.80
2016,06,04,00,12,16.80
2016,06,04,00,13,16.80
2016,06,04,00,14,16.80
2016,06,04,00,15,16.80
2016,06,04,00,16,16.80
2016,06,04,00,17,16.80
2016,06,04,00,18,16.70
2016,06,04,00,19,16.70
2016,06,04,00,20,16.70
2016,06,04,00,21,16.70
2016,06,04,00,22,16.70
2016,06,04,00,23,16.70
2016,06,04,00,24,16.60
2016,06,04,00,25,16.60
2016,06,04,00,26,16.60
2016,06,04,00,27,16.60
2016,06,04,00,28,16.60
2016,06,04,00,29,16.50
2016,06,04,00,30,16.50
2016,06,04,00,31,16.40
2016,06,04,00,32,16.40
2016,06,04,00,33,16.30
2016,06,04,00,34,16.30
2016,06,04,00,35,16.30
2016,06,04,00,36,16.20
2016,06,04,00,37,16.20
2016,06,04,00,38,16.10
2016,06,04,00,39,16.10
2016,06,04,00,40,16.10
2016,06,04,00,41,16.00
2016,06,04,00,42,16.00
2016,06,04,00,43,16.00
2016,06,04,00,44,15.90
2016,06,04,00,45,15.90
2016,06,04,00,46,15.90
2016,06,04,00,47,15.90
2016,06,04,00,48,15.90
2016,06,04,00,49,15.80
2016,06,04,00,50,15.80
2016,06,04,00,51,15.80
2016,06,04,00,52,15.80
2016,06,04,00,53,15.80
2016,06,04,00,54,15.80
2016,06,04,00,55,15.80
2016,06,04,00,56,15.70
2016,06,04,00,57,15.70
2016,06,04,00,58,15.70
2016,06,04,00,59,15.60
2016,06,04,01,00,15.60
2016,06,04,01,01,15.60
2016,06,04,01,02,15.50
2016,06,04,01,03,15.50
2016,06,04,01,04,15.40
2016,06,04,01,05,15.40
2016,06,04,01,06,15.40
2016,06,04,01,07,15.30
2016,06,04,01,08,15.30
2016,06,04,01,09,15.30
2016,06,04,01,10,15.30
2016,06,04,01,11,15.30
2016,06,04,01,12,15.30
2016,06,04,01,13,15.30
2016,06,04,01,14,15.30
2016,06,04,01,15,15.30
2016,06,04,01,16,15.30
2016,06,04,01,17,15.30
2016,06,04,01,18,15.30
2016,06,04,01,19,15.30
2016,06,04,01,20,15.30
2016,06,04,01,21,15.30
2016,06,04,01,22,15.30
2016,06,04,01,23,15.30
2016,06,04,01,24,15.30
2016,06,04,01,25,15.30
2016,06,04,01,26,15.30
2016,06,04,01,27,15.30
2016,06,04,01,28,15.30
2016,06,04,01,29,15.30
2016,06,04,01,30,15.30
2016,06,04,01,31,15.30
2016,06,04,01,32,15.30
2016,06,04,01,33,15.30
2016,06,04,01,34,15.30
2016,06,04,01,35,15.30
2016,06,04,01,36,15.30
2016,06,04,01,37,15.30
2016,06,04,01,38,15.30
2016,06,04,01,39,15.20
2016,06,04,01,40,15.20
2016,06,04,01,41,15.20
2016,06,04,01,42,15.20
2016,06,04,01,43,15.20
2016,06,04,01,44,15.20
2016,06,04,01,45,15.10
2016,06,04,01,46,15.10
2016,06,04,01,47,15.10
2016,06,04,01,48,15.10
2016,06,04,01,49,15.10
2016,06,04,01,50,15.10
2016,06,04,01,51,15.10
2016,06,04,01,52,15.10
2016,06,04,01,53,15.10
2016,06,04,01,54,15.10
2016,06,04,01,55,15.10
2016,06,04,01,56,15.10
2016,06,04,01,57,15.10
2016,06,04,01,58,15.10
2016,06,04,01,59,15.00
2016,06,04,02,00,15.00
2016,06,04,02,01,15.00
2016,06,04,02,02,14.90
2016,06,04,02,03,14.90
2016,06,04,02,04,14.90
2016,06,04,02,05,14.90
2016,06,04,02,06,14.90
2016,06,04,02,07,14.90
2016,06,04,02,08,14.90
2016,06,04,02,09,14.90
2016,06,04,02,10,14.80
2016,06,04,02,11,14.80
2016,06,04,02,12,14.80
2016,06,04,02,13,14.90
2016,06,04,02,14,14.90
2016,06,04,02,15,14.90
2016,06,04,02,16,14.90
2016,06,04,02,17,14.90
2016,06,04,02,18,14.90
2016,06,04,02,19,14.90
2016,06,04,02,20,15.00
2016,06,04,02,21,15.00
2016,06,04,02,22,15.00
2016,06,04,02,23,15.00
2016,06,04,02,24,15.00
2016,06,04,02,25,15.00
2016,06,04,02,26,15.00
2016,06,04,02,27,15.00
2016,06,04,02,28,15.00
2016,06,04,02,29,15.00
2016,06,04,02,30,15.00
2016,06,04,02,31,15.00
2016,06,04,02,32,15.00
2016,06,04,02,33,15.00
2016,06,04,02,34,14.90
2016,06,04,02,35,14.90
2016,06,04,02,36,14.90
2016,06,04,02,37,14.90
2016,06,04,02,38,14.90
2016,06,04,02,39,14.80
2016,06,04,02,40,14.80
2016,06,04,02,41,14.80
2016,06,04,02,42,14.80
2016,06,04,02,43,14.80
2016,06,04,02,44,14.70
2016,06,04,02,45,14.70
2016,06,04,02,46,14.70
2016,06,04,02,47,14.70
2016,06,04,02,48,14.60
2016,06,04,02,49,14.60
2016,06,04,02,50,14.60
2016,06,04,02,51,14.60
2016,06,04,02,52,14.60
2016,06,04,02,53,14.60
2016,06,04,02,54,14.60
2016,06,04,02,55,14.60
2016,06,04,02,56,14.60
2016,06,04,02,57,14.60
2016,06,04,02,58,14.60
2016,06,04,02,59,14.60
2016,06,04,03,00,14.60
2016,06,04,03,01,14.60
2016,06,04,03,02,14.60
2016,06,04,03,03,14.60
2016,06,04,03,04,14.60
2016,06,04,03,05,14.60
2016,06,04,03,06,14.60
2016,06,04,03,07,14.60
2016,06,04,03,08,14.60
2016,06,04,03,09,14.60
2016,06,04,03,10,14.50
2016,06,04,03,11,14.50
2016,06,04,03,12,14.50
2016,06,04,03,13,14.40
2016,06,04,03,14,14.40
2016,06,04,03,15,14.40
2016,06,04,03,16,14.40
2016,06,04,03,17,14.40
2016,06,04,03,18,14.30
2016,06,04,03,19,14.30
2016,06,04,03,20,14.30
2016,06,04,03,21,14.30
2016,06,04,03,22,14.20
2016,06,04,03,23,14.20
2016,06,04,03,24,14.20
2016,06,04,03,25,14.10
2016,06,04,03,26,14.10
2016,06,04,03,27,14.10
2016,06,04,03,28,14.10
2016,06,04,03,29,14.10
2016,06,04,03,30,14.10
2016,06,04,03,31,14.00
2016,06,04,03,32,14.00
2016,06,04,03,33,14.00
2016,06,04,03,34,14.00
2016,06,04,03,35,14.00
2016,06,04,03,36,14.00
2016,06,04,03,37,14.00
2016,06,04,03,38,14.00
2016,06,04,03,39,14.00
2016,06,04,03,40,14.00
2016,06,04,03,41,14.00
2016,06,04,03,42,14.00
2016,06,04,03,43,14.00
2016,06,04,03,44,14.00
2016,06,04,03,45,14.00
2016,06,04,03,46,14.00
2016,06,04,03,47,13.90
2016,06,04,03,48,13.90
2016,06,04,03,49,13.90
2016,06,04,03,50,13.80
2016,06,04,03,51,13.80
2016,06,04,03,52,13.80
2016,06,04,03,53,13.80
2016,06,04,03,54,13.80
2016,06,04,03,55,13.80
2016,06,04,03,56,13.80
2016,06,04,03,57,13.80
2016,06,04,03,58,13.80
2016,06,04,03,59,13.70
2016,06,04,04,00,13.70
2016,06,04,04,01,13.70
2016,06,04,04,02,13.70
2016,06,04,04,03,13.70
2016,06,04,04,04,13.70
2016,06,04,04,05,13.70
2016,06,04,04,06,13.70
2016,06,04,04,07,13.70
2016,06,04,04,08,13.70
2016,06,04,04,09,13.70
2016,06,04,04,10,13.70
2016,06,04,04,11,13.70
2016,06,04,04,12,13.70
2016,06,04,04,13,13.70
2016,06,04,04,14,13.70
2016,06,04,04,15,13.70
2016,06,04,04,16,13.70
2016,06,04,04,17,13.80
2016,06,04,04,18,13.70
2016,06,04,04,19,13.70
2016,06,04,04,20,13.70
2016,06,04,04,21,13.70
2016,06,04,04,22,13.70
2016,06,04,04,23,13.70
2016,06,04,04,24,13.70
2016,06,04,04,25,13.60
2016,06,04,04,26,13.60
2016,06,04,04,27,13.60
2016,06,04,04,28,13.60
2016,06,04,04,29,13.50
2016,06,04,04,30,13.50
2016,06,04,04,31,13.50
2016,06,04,04,32,13.40
2016,06,04,04,33,13.40
2016,06,04,04,34,13.40
2016,06,04,04,35,13.40
2016,06,04,04,36,13.40
2016,06,04,04,37,13.40
2016,06,04,04,38,13.40
2016,06,04,04,39,13.40
2016,06,04,04,40,13.40
2016,06,04,04,41,13.40
2016,06,04,04,42,13.40
2016,06,04,04,43,13.30
2016,06,04,04,44,13.30
2016,06,04,04,45,13.30
2016,06,04,04,46,13.30
2016,06,04,04,47,13.30
2016,06,04,04,48,13.30
2016,06,04,04,49,13.30
2016,06,04,04,50,13.30
2016,06,04,04,51,13.30
2016,06,04,04,52,13.30
2016,06,04,04,53,13.30
2016,06,04,04,54,13.30
2016,06,04,04,55,13.20
2016,06,04,04,56,13.20
2016,06,04,04,57,13.20
2016,06,04,04,58,13.20
2016,06,04,04,59,13.20
2016,06,04,05,00,13.20
2016,06,04,05,01,13.20
2016,06,04,05,02,13.20
2016,06,04,05,03,13.20
2016,06,04,05,04,13.20
2016,06,04,05,05,13.10
2016,06,04,05,06,13.20
2016,06,04,05,07,13.20
2016,06,04,05,08,13.20
2016,06,04,05,09,13.10
2016,06,04,05,10,13.10
2016,06,04,05,11,13.10
2016,06,04,05,12,13.10
2016,06,04,05,13,13.10
2016,06,04,05,14,13.10
2016,06,04,05,15,13.10
2016,06,04,05,16,13.10
2016,06,04,05,17,13.10
2016,06,04,05,18,13.10
2016,06,04,05,19,13.10
2016,06,04,05,20,13.10
2016,06,04,05,21,13.10
2016,06,04,05,22,13.10
2016,06,04,05,23,13.10
2016,06,04,05,24,13.10
2016,06,04,05,25,13.10
2016,06,04,05,26,13.10
2016,06,04,05,27,13.10
2016,06,04,05,28,13.10
2016,06,04,05,29,13.10
2016,06,04,05,30,13.10
2016,06,04,05,31,13.10
2016,06,04,05,32,13.10
2016,06,04,05,33,13.10
2016,06,04,05,34,13.10
2016,06,04,05,35,13.10
2016,06,04,05,36,13.10
2016,06,04,05,37,13.10
2016,06,04,05,38,13.00
2016,06,04,05,39,13.00
2016,06,04,05,40,13.00
2016,06,04,05,41,13.00
2016,06,04,05,42,12.90
2016,06,04,05,43,12.90
2016,06,04,05,44,12.90
2016,06,04,05,45,12.90
2016,06,04,05,46,12.90
2016,06,04,05,47,12.90
2016,06,04,05,48,12.90
2016,06,04,05,49,12.90
2016,06,04,05,50,12.90
2016,06,04,05,51,12.90
2016,06,04,05,52,12.90
2016,06,04,05,53,12.90
2016,06,04,05,54,12.90
2016,06,04,05,55,12.90
2016,06,04,05,56,12.90
2016,06,04,05,57,12.90
2016,06,04,05,58,13.00
2016,06,04,05,59,13.00
2016,06,04,06,00,13.00
2016,06,04,06,01,13.00
2016,06,04,06,02,13.00
2016,06,04,06,03,13.00
2016,06,04,06,04,13.10
2016,06,04,06,05,13.10
2016,06,04,06,06,13.10
2016,06,04,06,07,13.20
2016,06,04,06,08,13.20
2016,06,04,06,09,13.20
2016,06,04,06,10,13.30
2016,06,04,06,11,13.30
2016,06,04,06,12,13.30
2016,06,04,06,13,13.30
2016,06,04,06,14,13.30
2016,06,04,06,15,13.30
2016,06,04,06,16,13.40
2016,06,04,06,17,13.40
2016,06,04,06,18,13.40
2016,06,04,06,19,13.40
2016,06,04,06,20,13.40
2016,06,04,06,21,13.50
2016,06,04,06,22,13.50
2016,06,04,06,23,13.60
2016,06,04,06,24,13.70
2016,06,04,06,25,13.70
2016,06,04,06,26,13.70
2016,06,04,06,27,13.70
2016,06,04,06,28,13.70
2016,06,04,06,29,13.80
2016,06,04,06,30,13.80
2016,06,04,06,31,13.90
2016,06,04,06,32,14.00
2016,06,04,06,33,14.10
2016,06,04,06,34,14.10
2016,06,04,06,35,14.20
2016,06,04,06,36,14.30
2016,06,04,06,37,14.30
2016,06,04,06,38,14.30
2016,06,04,06,39,14.40
2016,06,04,06,40,14.40
2016,06,04,06,41,14.50
2016,06,04,06,42,14.50
2016,06,04,06,43,14.60
2016,06,04,06,44,14.60
2016,06,04,06,45,14.60
2016,06,04,06,46,14.60
2016,06,04,06,47,14.70
2016,06,04,06,48,14.70
2016,06,04,06,49,14.70
2016,06,04,06,50,14.80
2016,06,04,06,51,14.80
2016,06,04,06,52,14.80
2016,06,04,06,53,14.90
2016,06,04,06,54,14.90
2016,06,04,06,55,15.00
2016,06,04,06,56,15.00
2016,06,04,06,57,15.10
2016,06,04,06,58,15.20
2016,06,04,06,59,15.20
2016,06,04,07,00,15.30
2016,06,04,07,01,15.30
2016,06,04,07,02,15.30
2016,06,04,07,03,15.40
2016,06,04,07,04,15.40
2016,06,04,07,05,15.50
2016,06,04,07,06,15.50
2016,06,04,07,07,15.60
2016,06,04,07,08,15.60
2016,06,04,07,09,15.70
2016,06,04,07,10,15.80
2016,06,04,07,11,15.80
2016,06,04,07,12,15.80
2016,06,04,07,13,15.90
2016,06,04,07,14,15.90
2016,06,04,07,15,16.00
2016,06,04,07,16,16.10
2016,06,04,07,17,16.10
2016,06,04,07,18,16.20
2016,06,04,07,19,16.30
2016,06,04,07,20,16.30
2016,06,04,07,21,16.40
2016,06,04,07,22,16.40
2016,06,04,07,23,16.50
2016,06,04,07,24,16.60
2016,06,04,07,25,16.60
2016,06,04,07,26,16.70
2016,06,04,07,27,16.80
2016,06,04,07,28,16.80
2016,06,04,07,29,16.90
2016,06,04,07,30,17.00
2016,06,04,07,31,17.00
2016,06,04,07,32,17.10
2016,06,04,07,33,17.20
2016,06,04,07,34,17.30
2016,06,04,07,35,17.40
2016,06,04,07,36,17.40
2016,06,04,07,37,17.50
2016,06,04,07,38,17.60
2016,06,04,07,39,17.70
2016,06,04,07,40,17.70
2016,06,04,07,41,17.80
2016,06,04,07,42,17.90
2016,06,04,07,43,18.00
2016,06,04,07,44,18.10
2016,06,04,07,45,18.10
2016,06,04,07,46,18.20
2016,06,04,07,47,18.30
2016,06,04,07,48,18.30
2016,06,04,07,49,18.40
2016,06,04,07,50,18.50
2016,06,04,07,51,18.50
2016,06,04,07,52,18.60
2016,06,04,07,53,18.70
2016,06,04,07,54,18.80
2016,06,04,07,55,18.90
2016,06,04,07,56,19.00
2016,06,04,07,57,19.10
2016,06,04,07,58,19.20
2016,06,04,07,59,19.30
2016,06,04,08,00,19.40
2016,06,04,08,01,19.50
2016,06,04,08,02,19.50
2016,06,04,08,03,19.60
2016,06,04,08,04,19.70
2016,06,04,08,05,19.80
2016,06,04,08,06,19.90
2016,06,04,08,07,19.90
2016,06,04,08,08,19.90
2016,06,04,08,09,20.00
2016,06,04,08,10,20.00
2016,06,04,08,11,20.00
2016,06,04,08,12,20.00
2016,06,04,08,13,20.10
2016,06,04,08,14,20.00
2016,06,04,08,15,20.00
2016,06,04,08,16,20.00
2016,06,04,08,17,20.00
2016,06,04,08,18,20.00
2016,06,04,08,19,20.10
2016,06,04,08,20,20.10
2016,06,04,08,21,20.10
2016,06,04,08,22,20.20
2016,06,04,08,23,20.20
2016,06,04,08,24,20.30
2016,06,04,08,25,20.30
2016,06,04,08,26,20.40
2016,06,04,08,27,20.40
2016,06,04,08,28,20.50
2016,06,04,08,29,20.50
2016,06,04,08,30,20.60
2016,06,04,08,31,20.60
2016,06,04,08,32,20.60
2016,06,04,08,33,20.60
2016,06,04,08,34,20.70
2016,06,04,08,35,20.70
2016,06,04,08,36,20.70
2016,06,04,08,37,20.70
2016,06,04,08,38,20.80
2016,06,04,08,39,20.80
2016,06,04,08,40,20.80
2016,06,04,08,41,20.80
2016,06,04,08,42,20.80
2016,06,04,08,43,20.80
2016,06,04,08,44,20.80
2016,06,04,08,45,20.80
2016,06,04,08,46,20.80
2016,06,04,08,47,20.80
2016,06,04,08,48,20.80
2016,06,04,08,49,20.90
2016,06,04,08,50,20.90
2016,06,04,08,51,20.90
2016,06,04,08,52,20.90
2016,06,04,08,53,20.90
2016,06,04,08,54,21.00
2016,06,04,08,55,21.00
2016,06,04,08,56,21.10
2016,06,04,08,57,21.20
2016,06,04,08,58,21.20
2016,06,04,08,59,21.20
2016,06,04,09,00,21.20
2016,06,04,09,01,21.30
2016,06,04,09,02,21.30
2016,06,04,09,03,21.20
2016,06,04,09,04,21.20
2016,06,04,09,05,21.30
2016,06,04,09,06,21.30
2016,06,04,09,07,21.30
2016,06,04,09,08,21.30
2016,06,04,09,09,21.30
2016,06,04,09,10,21.30
2016,06,04,09,11,21.30
2016,06,04,09,12,21.30
2016,06,04,09,13,21.20
2016,06,04,09,14,21.20
2016,06,04,09,15,21.20
2016,06,04,09,16,21.20
2016,06,04,09,17,21.20
2016,06,04,09,18,21.30
2016,06,04,09,19,21.40
2016,06,04,09,20,21.40
2016,06,04,09,21,21.60
2016,06,04,09,22,21.70
2016,06,04,09,23,21.70
2016,06,04,09,24,21.80
2016,06,04,09,25,21.80
2016,06,04,09,26,21.90
2016,06,04,09,27,22.00
2016,06,04,09,28,22.00
2016,06,04,09,29,22.00
2016,06,04,09,30,22.10
2016,06,04,09,31,22.10
2016,06,04,09,32,22.10
2016,06,04,09,33,22.20
2016,06,04,09,34,22.20
2016,06,04,09,35,22.20
2016,06,04,09,36,22.20
2016,06,04,09,37,22.20
2016,06,04,09,38,22.20
2016,06,04,09,39,22.10
2016,06,04,09,40,22.10
2016,06,04,09,41,22.10
2016,06,04,09,42,22.10
2016,06,04,09,43,22.10
2016,06,04,09,44,22.10
2016,06,04,09,45,22.20
2016,06,04,09,46,22.20
2016,06,04,09,47,22.20
2016,06,04,09,48,22.20
2016,06,04,09,49,22.20
2016,06,04,09,50,22.10
2016,06,04,09,51,22.10
2016,06,04,09,52,22.10
2016,06,04,09,53,22.20
2016,06,04,09,54,22.20
2016,06,04,09,55,22.10
2016,06,04,09,56,22.10
2016,06,04,09,57,22.10
2016,06,04,09,58,22.10
2016,06,04,09,59,22.10
2016,06,04,10,00,22.10
2016,06,04,10,01,22.20
2016,06,04,10,02,22.20
2016,06,04,10,03,22.20
2016,06,04,10,04,22.30
2016,06,04,10,05,22.30
2016,06,04,10,06,22.30
2016,06,04,10,07,22.30
2016,06,04,10,08,22.30
2016,06,04,10,09,22.30
2016,06,04,10,10,22.30
2016,06,04,10,11,22.20
2016,06,04,10,12,22.20
2016,06,04,10,13,22.20
2016,06,04,10,14,22.20
2016,06,04,10,15,22.10
2016,06,04,10,16,22.10
2016,06,04,10,17,22.20
2016,06,04,10,18,22.20
2016,06,04,10,19,22.20
2016,06,04,10,20,22.10
2016,06,04,10,21,22.10
2016,06,04,10,22,22.00
2016,06,04,10,23,22.00
2016,06,04,10,24,22.00
2016,06,04,10,25,22.00
2016,06,04,10,26,22.00
2016,06,04,10,27,22.00
2016,06,04,10,28,22.00
2016,06,04,10,29,22.00
2016,06,04,10,30,22.10
2016,06,04,10,31,22.20
2016,06,04,10,32,22.20
2016,06,04,10,33,22.30
2016,06,04,10,34,22.30
2016,06,04,10,35,22.30
2016,06,04,10,36,22.30
2016,06,04,10,37,22.40
2016,06,04,10,38,22.40
2016,06,04,10,39,22.40
2016,06,04,10,40,22.40
2016,06,04,10,41,22.50
2016,06,04,10,42,22.50
2016,06,04,10,43,22.60
2016,06,04,10,44,22.60
2016,06,04,10,45,22.70
2016,06,04,10,46,22.70
2016,06,04,10,47,22.70
2016,06,04,10,48,22.70
2016,06,04,10,49,22.70
2016,06,04,10,50,22.70
2016,06,04,10,51,22.70
2016,06,04,10,52,22.70
2016,06,04,10,53,22.80
2016,06,04,10,54,22.80
2016,06,04,10,55,22.80
2016,06,04,10,56,22.80
2016,06,04,10,57,22.90
2016,06,04,10,58,23.00
2016,06,04,10,59,23.10
2016,06,04,11,00,23.20
2016,06,04,11,01,23.20
2016,06,04,11,02,23.30
2016,06,04,11,03,23.40
2016,06,04,11,04,23.40
2016,06,04,11,05,23.40
2016,06,04,11,06,23.40
2016,06,04,11,07,23.40
2016,06,04,11,08,23.30
2016,06,04,11,09,23.30
2016,06,04,11,10,23.20
2016,06,04,11,11,23.20
2016,06,04,11,12,23.20
2016,06,04,11,13,23.20
2016,06,04,11,14,23.30
2016,06,04,11,15,23.30
2016,06,04,11,16,23.40
2016,06,04,11,17,23.50
2016,06,04,11,18,23.60
2016,06,04,11,19,23.60
2016,06,04,11,20,23.60
2016,06,04,11,21,23.60
2016,06,04,11,22,23.50
2016,06,04,11,23,23.50
2016,06,04,11,24,23.40
2016,06,04,11,25,23.40
2016,06,04,11,26,23.40
2016,06,04,11,27,23.50
2016,06,04,11,28,23.60
2016,06,04,11,29,23.60
2016,06,04,11,30,23.60
2016,06,04,11,31,23.70
2016,06,04,11,32,23.70
2016,06,04,11,33,23.70
2016,06,04,11,34,23.80
2016,06,04,11,35,23.80
2016,06,04,11,36,23.80
2016,06,04,11,37,23.80
2016,06,04,11,38,23.80
2016,06,04,11,39,23.80
2016,06,04,11,40,23.80
2016,06,04,11,41,23.80
2016,06,04,11,42,23.80
2016,06,04,11,43,23.80
2016,06,04,11,44,23.80
2016,06,04,11,45,23.80
2016,06,04,11,46,23.90
2016,06,04,11,47,24.00
2016,06,04,11,48,24.10
2016,06,04,11,49,24.20
2016,06,04,11,50,24.20
2016,06,04,11,51,24.10
2016,06,04,11,52,24.10
2016,06,04,11,53,24.10
2016,06,04,11,54,24.10
2016,06,04,11,55,24.10
2016,06,04,11,56,24.20
2016,06,04,11,57,24.20
2016,06,04,11,58,24.30
2016,06,04,11,59,24.20
2016,06,04,12,00,24.10
2016,06,04,12,01,24.00
2016,06,04,12,02,23.90
2016,06,04,12,03,23.90
2016,06,04,12,04,23.90
2016,06,04,12,05,24.00
2016,06,04,12,06,24.10
2016,06,04,12,07,24.20
2016,06,04,12,08,24.20
2016,06,04,12,09,24.20
2016,06,04,12,10,24.20
2016,06,04,12,11,24.10
2016,06,04,12,12,24.10
2016,06,04,12,13,24.10
2016,06,04,12,14,24.10
2016,06,04,12,15,24.10
2016,06,04,12,16,24.20
2016,06,04,12,17,24.10
2016,06,04,12,18,24.10
2016,06,04,12,19,24.10
2016,06,04,12,20,24.20
2016,06,04,12,21,24.20
2016,06,04,12,22,24.30
2016,06,04,12,23,24.30
2016,06,04,12,24,24.30
2016,06,04,12,25,24.20
2016,06,04,12,26,24.20
2016,06,04,12,27,24.10
2016,06,04,12,28,24.10
2016,06,04,12,29,24.10
2016,06,04,12,30,24.10
2016,06,04,12,31,24.20
2016,06,04,12,32,24.30
2016,06,04,12,33,24.40
2016,06,04,12,34,24.50
2016,06,04,12,35,24.60
2016,06,04,12,36,24.60
2016,06,04,12,37,24.70
2016,06,04,12,38,24.70
2016,06,04,12,39,24.70
2016,06,04,12,40,24.70
2016,06,04,12,41,24.70
2016,06,04,12,42,24.70
2016,06,04,12,43,24.80
2016,06,04,12,44,24.80
2016,06,04,12,45,24.80
2016,06,04,12,46,24.80
2016,06,04,12,47,24.80
2016,06,04,12,48,24.90
2016,06,04,12,49,24.90
2016,06,04,12,50,24.90
2016,06,04,12,51,24.90
2016,06,04,12,52,24.90
2016,06,04,12,53,24.90
2016,06,04,12,54,24.90
2016,06,04,12,55,24.90
2016,06,04,12,56,25.00
2016,06,04,12,57,25.00
2016,06,04,12,58,25.00
2016,06,04,12,59,24.90
2016,06,04,13,00,24.80
2016,06,04,13,01,24.80
2016,06,04,13,02,24.90
2016,06,04,13,03,25.00
2016,06,04,13,04,25.00
2016,06,04,13,05,25.00
2016,06,04,13,06,25.00
2016,06,04,13,07,24.90
2016,06,04,13,08,24.80
2016,06,04,13,09,24.90
2016,06,04,13,10,24.90
2016,06,04,13,11,25.00
2016,06,04,13,12,25.10
2016,06,04,13,13,25.00
2016,06,04,13,14,25.00
2016,06,04,13,15,25.00
2016,06,04,13,16,24.90
2016,06,04,13,17,24.90
2016,06,04,13,18,25.00
2016,06,04,13,19,25.00
2016,06,04,13,20,25.00
2016,06,04,13,21,25.00
2016,06,04,13,22,25.00
2016,06,04,13,23,25.00
2016,06,04,13,24,25.00
2016,06,04,13,25,24.90
2016,06,04,13,26,24.90
2016,06,04,13,27,24.80
2016,06,04,13,28,24.80
2016,06,04,13,29,24.90
2016,06,04,13,30,24.90
2016,06,04,13,31,24.90
2016,06,04,13,32,24.90
2016,06,04,13,33,24.90
2016,06,04,13,34,24.90
2016,06,04,13,35,24.90
2016,06,04,13,36,24.90
2016,06,04,13,37,25.00
2016,06,04,13,38,25.00
2016,06,04,13,39,24.90
2016,06,04,13,40,25.00
2016,06,04,13,41,24.90
2016,06,04,13,42,25.00
2016,06,04,13,43,25.00
2016,06,04,13,44,25.00
2016,06,04,13,45,25.00
2016,06,04,13,46,25.00
2016,06,04,13,47,25.00
2016,06,04,13,48,25.00
2016,06,04,13,49,25.00
2016,06,04,13,50,25.00
2016,06,04,13,51,24.90
2016,06,04,13,52,24.90
2016,06,04,13,53,24.90
2016,06,04,13,54,25.00
2016,06,04,13,55,25.10
2016,06,04,13,56,25.20
2016,06,04,13,57,25.20
2016,06,04,13,58,25.10
2016,06,04,13,59,25.00
2016,06,04,14,00,24.90
2016,06,04,14,01,25.00
2016,06,04,14,02,25.00
2016,06,04,14,03,25.00
2016,06,04,14,04,25.10
2016,06,04,14,05,25.10
2016,06,04,14,06,25.20
2016,06,04,14,07,25.30
2016,06,04,14,08,25.40
2016,06,04,14,09,25.50
2016,06,04,14,10,25.60
2016,06,04,14,11,25.60
2016,06,04,14,12,25.60
2016,06,04,14,13,25.60
2016,06,04,14,14,25.60
2016,06,04,14,15,25.60
2016,06,04,14,16,25.60
2016,06,04,14,17,25.60
2016,06,04,14,18,25.60
2016,06,04,14,19,25.60
2016,06,04,14,20,25.60
2016,06,04,14,21,25.60
2016,06,04,14,22,25.60
2016,06,04,14,23,25.60
2016,06,04,14,24,25.60
2016,06,04,14,25,25.60
2016,06,04,14,26,25.60
2016,06,04,14,27,25.60
2016,06,04,14,28,25.60
2016,06,04,14,29,25.60
2016,06,04,14,30,25.60
2016,06,04,14,31,25.70
2016,06,04,14,32,25.70
2016,06,04,14,33,25.80
2016,06,04,14,34,25.90
2016,06,04,14,35,25.90
2016,06,04,14,36,25.90
2016,06,04,14,37,26.00
2016,06,04,14,38,26.00
2016,06,04,14,39,26.10
2016,06,04,14,40,26.10
2016,06,04,14,41,26.20
2016,06,04,14,42,26.20
2016,06,04,14,43,26.30
2016,06,04,14,44,26.30
2016,06,04,14,45,26.30
2016,06,04,14,46,26.30
2016,06,04,14,47,26.40
2016,06,04,14,48,26.30
2016,06,04,14,49,26.40
2016,06,04,14,50,26.40
2016,06,04,14,51,26.40
2016,06,04,14,52,26.40
2016,06,04,14,53,26.40
2016,06,04,14,54,26.50
2016,06,04,14,55,26.50
2016,06,04,14,56,26.50
2016,06,04,14,57,26.50
2016,06,04,14,58,26.50
2016,06,04,14,59,26.50
2016,06,04,15,00,26.60
2016,06,04,15,01,26.60
2016,06,04,15,02,26.60
2016,06,04,15,03,26.60
2016,06,04,15,04,26.60
2016,06,04,15,05,26.70
2016,06,04,15,06,26.80
2016,06,04,15,07,26.90
2016,06,04,15,08,27.00
2016,06,04,15,09,27.00
2016,06,04,15,10,27.10
2016,06,04,15,11,27.10
2016,06,04,15,12,27.10
2016,06,04,15,13,27.10
2016,06,04,15,14,27.10
2016,06,04,15,15,27.10
2016,06,04,15,16,27.10
2016,06,04,15,17,27.10
2016,06,04,15,18,27.10
2016,06,04,15,19,27.00
2016,06,04,15,20,26.90
2016,06,04,15,21,26.90
2016,06,04,15,22,26.80
2016,06,04,15,23,26.80
2016,06,04,15,24,26.80
2016,06,04,15,25,26.80
2016,06,04,15,26,26.80
2016,06,04,15,27,26.80
2016,06,04,15,28,26.90
2016,06,04,15,29,26.80
2016,06,04,15,30,26.80
2016,06,04,15,31,26.80
2016,06,04,15,32,26.80
2016,06,04,15,33,26.90
2016,06,04,15,34,26.90
2016,06,04,15,35,27.00
2016,06,04,15,36,27.10
2016,06,04,15,37,27.10
2016,06,04,15,38,27.10
2016,06,04,15,39,27.20
2016,06,04,15,40,27.20
2016,06,04,15,41,27.20
2016,06,04,15,42,27.20
2016,06,04,15,43,27.20
2016,06,04,15,44,27.30
2016,06,04,15,45,27.30
2016,06,04,15,46,27.30
2016,06,04,15,47,27.30
2016,06,04,15,48,27.30
2016,06,04,15,49,27.40
2016,06,04,15,50,27.40
2016,06,04,15,51,27.40
2016,06,04,15,52,27.50
2016,06,04,15,53,27.50
2016,06,04,15,54,27.60
2016,06,04,15,55,27.60
2016,06,04,15,56,27.60
2016,06,04,15,57,27.70
2016,06,04,15,58,27.80
2016,06,04,15,59,27.80
2016,06,04,16,00,27.80
2016,06,04,16,01,27.80
2016,06,04,16,02,27.80
2016,06,04,16,03,27.80
2016,06,04,16,04,27.90
2016,06,04,16,05,27.80
2016,06,04,16,06,27.80
2016,06,04,16,07,27.80
2016,06,04,16,08,27.80
2016,06,04,16,09,27.80
2016,06,04,16,10,27.80
2016,06,04,16,11,27.80
2016,06,04,16,12,27.90
2016,06,04,16,13,27.90
2016,06,04,16,14,28.00
2016,06,04,16,15,28.20
2016,06,04,16,16,28.30
2016,06,04,16,17,28.40
2016,06,04,16,18,28.40
2016,06,04,16,19,28.40
2016,06,04,16,20,28.40
2016,06,04,16,21,28.30
2016,06,04,16,22,28.30
2016,06,04,16,23,28.20
2016,06,04,16,24,28.20
2016,06,04,16,25,28.20
2016,06,04,16,26,28.20
2016,06,04,16,27,28.20
2016,06,04,16,28,28.20
2016,06,04,16,29,28.20
2016,06,04,16,30,28.20
2016,06,04,16,31,28.10
2016,06,04,16,32,28.00
2016,06,04,16,33,27.90
2016,06,04,16,34,27.90
2016,06,04,16,35,27.90
2016,06,04,16,36,27.90
2016,06,04,16,37,27.90
2016,06,04,16,38,27.90
2016,06,04,16,39,28.00
2016,06,04,16,40,28.00
2016,06,04,16,41,28.00
2016,06,04,16,42,28.00
2016,06,04,16,43,28.00
2016,06,04,16,44,27.80
2016,06,04,16,45,27.40
2016,06,04,16,46,27.10
2016,06,04,16,47,26.80
2016,06,04,16,48,26.50
2016,06,04,16,49,26.30
2016,06,04,16,50,26.10
2016,06,04,16,51,26.10
2016,06,04,16,52,26.00
2016,06,04,16,53,25.90
2016,06,04,16,54,25.60
2016,06,04,16,55,25.30
2016,06,04,16,56,25.10
2016,06,04,16,57,24.90
2016,06,04,16,58,24.90
2016,06,04,16,59,24.90
2016,06,04,17,00,24.90
2016,06,04,17,01,24.90
2016,06,04,17,02,24.70
2016,06,04,17,03,24.60
2016,06,04,17,04,24.50
2016,06,04,17,05,24.40
2016,06,04,17,06,24.40
2016,06,04,17,07,24.40
2016,06,04,17,08,24.40
2016,06,04,17,09,24.30
2016,06,04,17,10,24.40
2016,06,04,17,11,24.40
2016,06,04,17,12,24.30
2016,06,04,17,13,24.30
2016,06,04,17,14,24.30
2016,06,04,17,15,24.20
2016,06,04,17,16,24.10
2016,06,04,17,17,23.90
2016,06,04,17,18,23.80
2016,06,04,17,19,23.70